Tracking 35334 objects as of 12-Sep-2026
HD Live streaming from Space Station
objects crossing your sky now

STARLINK-30813

Track STARLINK-30813 now!
10-day predictions
STARLINK-30813 is classified as:


NORAD ID: 58213
Int'l Code: 2023-170H
Launch date: November 3, 2023
Source: United States (US)
Launch site: AIR FORCE EASTERN TEST RANGE (AFETR)
Your satellite tracking list
Your tracking list is empty




NASA's NSSDC Master Catalog

Two Line Element Set (TLE):
1 58213U 23170H   26255.25463802  .00000833  00000-0  39784-4 0  9991
2 58213  43.0013 220.4800 0001364 268.9687  91.1008 15.27578223158834
Source of the keplerian elements: AFSPC